WB4FAY-4 Weather Reports


time (UTC)temp
C
wind
direction
speed
KPH
gust
KPH
rain 1hr
cm
rain 24hr
cm
rain mn
cm
humidity
%
barometer
mb
20260901141017 27 86 3.2 4.8 0.00 0.00 0.00 73 1021.1
20260901140523 27 88 3.2 3.2 0.00 0.00 0.00 74 1021.1
20260901140017 27 83 0.0 4.8 0.00 0.00 0.00 74 1021.1
20260901135517 27 85 3.2 3.2 0.00 0.00 0.00 76 1021.1
20260901135017 27 65 0.0 6.4 0.00 0.00 0.00 76 1021.1
20260901134517 26 61 4.8 4.8 0.00 0.00 0.00 77 1021.1
20260901134017 26 92 0.0 4.8 0.00 0.00 0.00 78 1021.1
20260901133517 26 109 1.6 4.8 0.00 0.00 0.00 79 1021.1
20260901133018 26 110 1.6 4.8 0.00 0.00 0.00 79 1021.1
20260901132517 26 100 3.2 8.0 0.00 0.00 0.00 80 1021.2
20260901132017 26 89 4.8 12.9 0.00 0.00 0.00 80 1021.2
20260901131517 25 97 3.2 11.3 0.00 0.00 0.00 82 1021.2
20260901131017 25 89 4.8 9.7 0.00 0.00 0.00 83 1021.2
20260901130517 25 90 0.0 8.0 0.00 0.00 0.00 84 1021.1
20260901130016 25 78 3.2 8.0 0.00 0.00 0.00 84 1021.1
20260901125517 25 96 3.2 8.0 0.00 0.00 0.00 85 1021.1
20260901125017 25 95 6.4 11.3 0.00 0.00 0.00 85 1021.0
20260901124517 25 114 3.2 9.7 0.00 0.00 0.00 86 1021.0
20260901124017 25 90 3.2 11.3 0.00 0.00 0.00 86 1021.0
20260901123518 24 100 3.2 11.3 0.00 0.00 0.00 87 1021.0
20260901123017 24 92 4.8 9.7 0.00 0.00 0.00 88 1021.0
20260901122517 23 88 4.8 9.7 0.00 0.00 0.00 88 1020.9
20260901122017 23 93 6.4 6.4 0.00 0.00 0.00 89 1020.8
20260901121517 23 99 3.2 6.4 0.00 0.00 0.00 90 1020.8
20260901121017 23 103 4.8 6.4 0.00 0.00 0.00 90 1020.7
20260901120517 23 0 0.0 0.0 0.00 0.00 0.00 90 1020.7
20260901120016 23 0 0.0 0.0 0.00 0.00 0.00 91 1020.5
20260901115517 23 0 0.0 0.0 0.00 0.00 0.00 91 1020.4
20260901115017 23 0 0.0 0.0 0.00 0.00 0.00 91 1020.4
20260901114517 23 0 0.0 0.0 0.00 0.00 0.00 90 1020.3
20260901114017 23 0 0.0 0.0 0.00 0.00 0.00 90 1020.2
20260901113517 23 0 0.0 0.0 0.00 0.00 0.00 90 1020.2
20260901113017 23 0 0.0 0.0 0.00 0.00 0.00 90 1020.2
20260901112517 23 0 0.0 0.0 0.00 0.00 0.00 90 1020.1
20260901112017 23 0 0.0 0.0 0.00 0.00 0.00 90 1020.0
20260901111518 23 0 0.0 0.0 0.00 0.00 0.00 90 1020.0
20260901111017 23 0 0.0 0.0 0.00 0.00 0.00 90 1020.0
20260901110518 23 0 0.0 0.0 0.00 0.00 0.00 90 1019.9
20260901110017 23 0 0.0 0.0 0.00 0.00 0.00 90 1019.9
20260901105517 23 0 0.0 0.0 0.00 0.00 0.00 90 1019.8
20260901105017 23 0 0.0 0.0 0.00 0.00 0.00 90 1019.7
20260901104517 23 0 0.0 0.0 0.00 0.00 0.00 90 1019.7
20260901104017 23 0 0.0 0.0 0.00 0.00 0.00 90 1019.8
20260901103517 23 0 0.0 0.0 0.00 0.00 0.00 90 1019.8
20260901103017 23 0 0.0 0.0 0.00 0.00 0.00 90 1019.8
20260901102517 23 0 0.0 0.0 0.00 0.00 0.00 90 1019.7
20260901102017 23 0 0.0 0.0 0.00 0.00 0.00 90 1019.7
20260901101518 23 0 0.0 0.0 0.00 0.00 0.00 89 1019.7
20260901101017 23 0 0.0 0.0 0.00 0.00 0.00 89 1019.8
20260901100517 23 0 0.0 0.0 0.00 0.00 0.00 89 1019.8
20260901100017 23 0 0.0 0.0 0.00 0.00 0.00 89 1019.8
20260901095517 23 0 0.0 0.0 0.00 0.00 0.00 89 1019.8
20260901095017 23 0 0.0 0.0 0.00 0.00 0.00 89 1019.8
20260901094517 23 0 0.0 0.0 0.00 0.00 0.00 89 1019.8
20260901094017 23 0 0.0 0.0 0.00 0.00 0.00 89 1019.7
20260901093517 23 0 0.0 0.0 0.00 0.00 0.00 88 1019.7
20260901093017 23 0 0.0 0.0 0.00 0.00 0.00 88 1019.6
20260901092517 23 0 0.0 0.0 0.00 0.00 0.00 88 1019.5
20260901092017 23 0 0.0 0.0 0.00 0.00 0.00 88 1019.5
20260901091517 23 0 0.0 0.0 0.00 0.00 0.00 88 1019.5
20260901091017 24 0 0.0 0.0 0.00 0.00 0.00 88 1019.5
20260901090517 24 0 0.0 0.0 0.00 0.00 0.00 88 1019.5
20260901090017 24 0 0.0 0.0 0.00 0.00 0.00 87 1019.5
20260901085517 24 0 0.0 0.0 0.00 0.00 0.00 87 1019.4
20260901085017 24 0 0.0 0.0 0.00 0.00 0.00 87 1019.3
20260901084517 24 0 0.0 0.0 0.00 0.00 0.00 87 1019.3
20260901084017 24 0 0.0 0.0 0.00 0.00 0.00 87 1019.3
20260901083517 24 0 0.0 0.0 0.00 0.00 0.00 87 1019.3
20260901083016 24 0 0.0 0.0 0.00 0.00 0.00 86 1019.3
20260901082517 24 0 0.0 0.0 0.00 0.00 0.00 86 1019.3
20260901082017 25 0 0.0 0.0 0.00 0.00 0.00 86 1019.3
20260901081517 25 0 0.0 0.0 0.00 0.00 0.00 86 1019.2
20260901081017 25 0 0.0 0.0 0.00 0.00 0.00 86 1019.2
20260901080517 25 0 0.0 0.0 0.00 0.00 0.00 86 1019.2
20260901080017 25 0 0.0 0.0 0.00 0.00 0.00 86 1019.1
20260901075517 25 0 0.0 0.0 0.00 0.00 0.00 85 1019.1
20260901075018 25 0 0.0 0.0 0.00 0.00 0.00 85 1019.1
20260901074517 25 0 0.0 0.0 0.00 0.00 0.00 85 1019.1
20260901074017 25 0 0.0 0.0 0.00 0.00 0.00 85 1019.0
20260901073518 25 0 0.0 0.0 0.00 0.00 0.00 85 1019.0
20260901073017 25 0 0.0 0.0 0.00 0.00 0.00 85 1019.1
20260901072517 25 0 0.0 0.0 0.00 0.00 0.00 84 1019.0
20260901072018 25 0 0.0 0.0 0.00 0.00 0.00 84 1019.0
20260901071517 25 0 0.0 0.0 0.00 0.00 0.00 84 1019.0
20260901071017 25 0 0.0 0.0 0.00 0.00 0.00 84 1019.0
20260901070517 25 0 0.0 0.0 0.00 0.00 0.00 84 1019.0
20260901070017 25 0 0.0 0.0 0.00 0.00 0.00 84 1019.1
20260901065517 25 0 0.0 0.0 0.00 0.00 0.00 84 1019.1
20260901065017 25 0 0.0 0.0 0.00 0.00 0.00 83 1019.1
20260901064517 25 0 0.0 0.0 0.00 0.00 0.00 83 1019.1
20260901064017 25 0 0.0 0.0 0.00 0.00 0.00 83 1019.2
20260901063517 25 0 0.0 0.0 0.00 0.00 0.00 83 1019.2
20260901063017 25 0 0.0 0.0 0.00 0.00 0.00 83 1019.3
20260901062517 26 0 0.0 0.0 0.00 0.00 0.00 83 1019.3
20260901062017 25 0 0.0 0.0 0.00 0.00 0.00 83 1019.3
20260901061517 25 0 0.0 0.0 0.00 0.00 0.00 83 1019.3
20260901061017 25 0 0.0 0.0 0.00 0.00 0.00 83 1019.3
20260901060517 25 0 0.0 0.0 0.00 0.00 0.00 82 1019.4
20260901060017 25 0 0.0 0.0 0.00 0.00 0.00 82 1019.4
20260901055517 25 0 0.0 0.0 0.00 0.00 0.00 82 1019.4
20260901055017 25 0 0.0 0.0 0.00 0.00 0.00 82 1019.4
20260901054517 26 0 0.0 0.0 0.00 0.00 0.00 82 1019.4
20260901054017 26 0 0.0 0.0 0.00 0.00 0.00 82 1019.4
20260901053517 26 0 0.0 0.0 0.00 0.00 0.00 82 1019.4
20260901053017 26 0 0.0 0.0 0.00 0.00 0.00 82 1019.5
20260901052517 26 0 0.0 0.0 0.00 0.00 0.00 82 1019.5
20260901052018 26 0 0.0 0.0 0.00 0.00 0.00 82 1019.6
20260901051517 26 0 0.0 0.0 0.00 0.00 0.00 82 1019.6
20260901051018 26 0 0.0 0.0 0.00 0.00 0.00 82 1019.5
20260901050517 26 0 0.0 0.0 0.00 0.00 0.00 82 1019.4
20260901050017 26 0 0.0 0.0 0.00 0.00 0.00 82 1019.4
20260901045517 26 0 0.0 0.0 0.00 0.00 0.00 82 1019.4
20260901045017 26 0 0.0 0.0 0.00 0.00 0.00 82 1019.5
20260901044517 26 0 0.0 0.0 0.00 0.00 0.00 82 1019.5
20260901044022 26 0 0.0 0.0 0.00 0.00 0.00 81 1019.5
20260901043517 26 0 0.0 0.0 0.00 0.00 0.00 81 1019.4
20260901043017 26 0 0.0 0.0 0.00 0.00 0.00 81 1019.4
20260901042517 26 0 0.0 0.0 0.00 0.00 0.00 81 1019.5
20260901042017 26 0 0.0 0.0 0.00 0.00 0.00 81 1019.5
20260901041517 26 0 0.0 0.0 0.00 0.00 0.00 81 1019.5
20260901041018 26 0 0.0 0.0 0.00 0.00 0.00 81 1019.5
20260901040517 26 0 0.0 0.0 0.00 0.00 0.00 81 1019.5
20260901040017 26 0 0.0 0.0 0.00 0.00 0.00 81 1019.5
20260901035518 26 0 0.0 0.0 0.00 0.00 0.00 81 1019.6
20260901035017 26 0 0.0 0.0 0.00 0.00 0.00 81 1019.6
20260901034517 26 0 0.0 0.0 0.00 0.00 0.00 80 1019.6
20260901034017 26 0 0.0 0.0 0.00 0.00 0.00 80 1019.6
20260901033517 26 0 0.0 0.0 0.00 0.00 0.00 80 1019.6
20260901033017 26 0 0.0 0.0 0.00 0.00 0.00 79 1019.6
20260901032517 26 0 0.0 0.0 0.00 0.00 0.00 79 1019.6
20260901032017 26 0 0.0 0.0 0.00 0.00 0.00 79 1019.7
20260901031517 26 0 0.0 0.0 0.00 0.00 0.00 79 1019.7
20260901031017 26 0 0.0 0.0 0.00 0.00 0.00 78 1019.7
20260901030517 26 0 0.0 0.0 0.00 0.00 0.00 78 1019.7
20260901030017 26 0 0.0 0.0 0.00 0.00 0.00 78 1019.7
20260901025517 26 0 0.0 0.0 0.00 0.00 0.00 78 1019.6
20260901025017 26 0 0.0 0.0 0.00 0.00 0.00 78 1019.7
20260901024517 27 0 0.0 0.0 0.00 0.00 0.00 78 1019.7
20260901024016 27 0 0.0 0.0 0.00 0.00 0.00 77 1019.6
20260901023517 27 0 0.0 0.0 0.00 0.00 0.00 77 1019.6
20260901023017 27 0 0.0 0.0 0.00 0.00 0.00 77 1019.6
20260901022517 27 0 0.0 0.0 0.00 0.00 0.00 76 1019.5
20260901022017 27 0 0.0 0.0 0.00 0.00 0.00 76 1019.5
20260901021518 27 0 0.0 0.0 0.00 0.00 0.00 76 1019.5
20260901021017 27 0 0.0 0.0 0.00 0.00 0.00 75 1019.4
20260901020517 27 0 0.0 0.0 0.00 0.00 0.00 75 1019.4
20260901020017 27 0 0.0 0.0 0.00 0.00 0.00 74 1019.3
20260901015517 27 0 0.0 0.0 0.00 0.00 0.00 74 1019.3
20260901015017 27 0 0.0 0.0 0.00 0.00 0.00 74 1019.2
20260901014517 27 0 0.0 0.0 0.00 0.00 0.00 73 1019.2
20260901014017 27 0 0.0 0.0 0.00 0.00 0.00 73 1019.0
20260901013517 28 0 0.0 0.0 0.00 0.00 0.00 72 1019.0
20260901013017 28 0 0.0 0.0 0.00 0.00 0.00 72 1019.0
20260901012517 28 0 0.0 0.0 0.00 0.00 0.00 71 1018.8
20260901012017 28 0 0.0 0.0 0.00 0.00 0.00 71 1018.7
20260901011517 28 0 0.0 0.0 0.00 0.00 0.00 70 1018.7
20260901011017 28 0 0.0 0.0 0.00 0.00 0.00 69 1018.6
20260901010517 28 0 0.0 0.0 0.00 0.00 0.00 69 1018.6
20260901010017 28 0 0.0 0.0 0.00 0.00 0.00 68 1018.6
20260901005517 28 0 0.0 0.0 0.00 0.00 0.00 68 1018.6
20260901005017 28 0 0.0 0.0 0.00 0.00 0.00 67 1018.5
20260901004517 29 0 0.0 0.0 0.00 0.00 0.00 66 1018.5
20260901004017 29 0 0.0 0.0 0.00 0.00 0.00 66 1018.4
20260901003517 29 0 0.0 0.0 0.00 0.00 0.00 65 1018.3
20260901003017 30 0 0.0 0.0 0.00 0.00 0.00 64 1018.3
20260901002517 30 0 0.0 0.0 0.00 0.00 0.00 63 1018.3
20260901002018 30 0 0.0 0.0 0.00 0.00 0.00 62 1018.3
20260901001517 30 0 0.0 0.0 0.00 0.00 0.00 61 1018.2
20260901001017 31 0 0.0 0.0 0.00 0.00 0.00 60 1018.3
20260901000517 31 0 0.0 0.0 0.00 0.00 0.00 58 1018.3
20260901000017 31 83 0.0 6.4 0.00 0.00 0.00 57 1018.4
20260831235517 31 106 0.0 6.4 0.00 0.00 0.00 56 1018.4
20260831235018 32 109 1.6 6.4 0.00 0.00 0.00 55 1018.4
20260831234517 32 58 0.0 3.2 0.00 0.00 0.00 54 1018.4
20260831234018 32 0 0.0 0.0 0.00 0.00 0.00 53 1018.4
20260831233517 32 56 0.0 8.0 0.00 0.00 0.00 52 1018.4
20260831233017 32 86 3.2 6.4 0.00 0.00 0.00 52 1018.3
20260831232517 32 102 0.0 3.2 0.00 0.00 0.00 51 1018.3
20260831232017 32 80 0.0 9.7 0.00 0.00 0.00 50 1018.3
20260831231517 32 100 0.0 4.8 0.00 0.00 0.00 50 1018.4
20260831231018 32 95 1.6 11.3 0.00 0.00 0.00 50 1018.4
20260831230517 32 61 4.8 6.4 0.00 0.00 0.00 50 1018.5
20260831230017 32 79 0.0 9.7 0.00 0.00 0.00 49 1018.5
20260831225517 32 104 0.0 8.0 0.00 0.00 0.00 49 1018.5
20260831225017 33 66 0.0 6.4 0.00 0.00 0.00 50 1018.5
20260831224517 33 78 0.0 14.5 0.00 0.00 0.00 49 1018.5
20260831224017 33 82 8.0 9.7 0.00 0.00 0.00 49 1018.6
20260831223517 33 83 0.0 11.3 0.00 0.00 0.00 49 1018.5
20260831223017 33 360 3.2 11.3 0.00 0.00 0.00 49 1018.6
20260831222517 33 65 8.0 11.3 0.00 0.00 0.00 48 1018.5
20260831222017 33 78 6.4 9.7 0.00 0.00 0.00 47 1018.5
20260831221517 33 93 4.8 9.7 0.00 0.00 0.00 46 1018.5
20260831221017 33 96 6.4 11.3 0.00 0.00 0.00 46 1018.6
20260831220517 33 90 9.7 3.2 0.00 0.00 0.00 48 1018.5
20260831220017 33 85 1.6 12.9 0.00 0.00 0.00 48 1018.5
20260831215517 34 88 0.0 9.7 0.00 0.00 0.00 48 1018.5
20260831215017 34 99 6.4 8.0 0.00 0.00 0.00 46 1018.5
20260831214517 34 66 4.8 11.3 0.00 0.00 0.00 45 1018.6
20260831214017 35 78 8.0 9.7 0.00 0.00 0.00 44 1018.6
20260831213517 35 69 3.2 14.5 0.00 0.00 0.00 43 1018.6
20260831213017 35 97 3.2 8.0 0.00 0.00 0.00 42 1018.7
20260831212517 35 86 4.8 8.0 0.00 0.00 0.00 42 1018.8
20260831212018 35 82 3.2 12.9 0.00 0.00 0.00 44 1018.8
20260831211517 35 83 1.6 12.9 0.00 0.00 0.00 43 1018.8
20260831211017 35 58 0.0 9.7 0.00 0.00 0.00 43 1018.9
20260831210517 35 73 3.2 14.5 0.00 0.00 0.00 43 1018.9
20260831210018 35 90 0.0 12.9 0.00 0.00 0.00 43 1018.9
20260831205517 35 78 0.0 14.5 0.00 0.00 0.00 43 1018.8
20260831205017 35 79 6.4 9.7 0.00 0.00 0.00 42 1018.9
20260831204517 35 90 4.8 12.9 0.00 0.00 0.00 43 1018.9
20260831204017 35 68 9.7 6.4 0.00 0.00 0.00 43 1018.9
20260831203518 35 113 0.0 11.3 0.00 0.00 0.00 43 1018.9
20260831203017 35 100 4.8 11.3 0.00 0.00 0.00 44 1018.9
20260831202517 35 96 3.2 11.3 0.00 0.00 0.00 43 1019.0
20260831202017 35 97 3.2 8.0 0.00 0.00 0.00 43 1019.0
20260831201517 35 83 3.2 9.7 0.00 0.00 0.00 43 1019.1
20260831201017 35 95 0.0 11.3 0.00 0.00 0.00 43 1019.2
20260831200517 35 160 1.6 12.9 0.00 0.00 0.00 44 1019.2
20260831200018 35 144 0.0 6.4 0.00 0.00 0.00 44 1019.3
20260831195517 34 71 0.0 12.9 0.00 0.00 0.00 42 1019.3
20260831195017 34 137 8.0 8.0 0.00 0.00 0.00 43 1019.5
20260831194517 34 107 1.6 12.9 0.00 0.00 0.00 43 1019.5
20260831194017 33 88 4.8 11.3 0.00 0.00 0.00 45 1019.4
20260831193518 33 35 11.3 8.0 0.00 0.00 0.00 46 1019.5
20260831193017 33 61 0.0 12.9 0.00 0.00 0.00 45 1019.6
20260831192517 33 86 6.4 14.5 0.00 0.00 0.00 46 1019.6
20260831192017 33 34 4.8 8.0 0.00 0.00 0.00 46 1019.6
20260831191517 33 93 0.0 12.9 0.00 0.00 0.00 46 1019.7
20260831191017 33 90 0.0 11.3 0.00 0.00 0.00 46 1019.8
20260831190517 33 121 4.8 6.4 0.00 0.00 0.00 47 1019.8
20260831190017 33 32 4.8 8.0 0.00 0.00 0.00 48 1019.9
20260831185518 33 18 0.0 6.4 0.00 0.00 0.00 47 1019.9
20260831185017 33 356 3.2 9.7 0.00 0.00 0.00 48 1020.0
20260831184517 33 76 9.7 9.7 0.00 0.00 0.00 49 1020.1
20260831184017 32 23 3.2 8.0 0.00 0.00 0.00 49 1020.2
20260831183517 32 72 0.0 11.3 0.00 0.00 0.00 47 1020.2
20260831183017 32 189 0.0 6.4 0.00 0.00 0.00 49 1020.3
20260831182517 32 92 0.0 6.4 0.00 0.00 0.00 51 1020.4
20260831182017 32 0 0.0 0.0 0.00 0.00 0.00 51 1020.5
20260831181517 32 45 0.0 4.8 0.00 0.00 0.00 53 1020.5
20260831181017 32 0 0.0 0.0 0.00 0.00 0.00 55 1020.7
20260831180518 32 0 0.0 0.0 0.00 0.00 0.00 54 1020.7
20260831180018 32 34 0.0 6.4 0.00 0.00 0.00 53 1020.7
20260831175517 32 120 1.6 4.8 0.00 0.00 0.00 57 1020.8
20260831175017 32 80 1.6 8.0 0.00 0.00 0.00 55 1020.8
20260831174517 32 42 0.0 11.3 0.00 0.00 0.00 55 1020.9
20260831174017 32 239 0.0 6.4 0.00 0.00 0.00 56 1021.0
20260831173517 31 256 1.6 8.0 0.00 0.00 0.00 57 1021.0
20260831173017 31 136 1.6 6.4 0.00 0.00 0.00 58 1021.0
20260831172517 31 112 4.8 8.0 0.00 0.00 0.00 59 1021.1
20260831172017 31 182 0.0 8.0 0.00 0.00 0.00 58 1021.1
20260831171517 31 127 0.0 6.4 0.00 0.00 0.00 57 1021.2
20260831171018 31 75 0.0 12.9 0.00 0.00 0.00 58 1021.2
20260831170517 31 78 9.7 9.7 0.00 0.00 0.00 60 1021.2
20260831170017 31 271 0.0 8.0 0.00 0.00 0.00 61 1021.2
20260831165517 30 278 1.6 4.8 0.00 0.00 0.00 64 1021.3
20260831165017 30 253 4.8 4.8 0.00 0.00 0.00 66 1021.4
20260831164517 30 93 0.0 3.2 0.00 0.00 0.00 65 1021.5
20260831164017 30 93 0.0 3.2 0.00 0.00 0.00 64 1021.6
20260831163517 30 0 0.0 0.0 0.00 0.00 0.00 65 1021.6
20260831163017 30 320 0.0 6.4 0.00 0.00 0.00 65 1021.7
20260831162517 31 0 0.0 0.0 0.00 0.00 0.00 62 1021.8
20260831162017 31 144 0.0 3.2 0.00 0.00 0.00 60 1021.8
20260831161517 31 48 0.0 6.4 0.00 0.00 0.00 62 1021.8
20260831161018 31 88 0.0 9.7 0.00 0.00 0.00 61 1021.8
20260831160517 31 116 0.0 9.7 0.00 0.00 0.00 62 1021.9
20260831160017 31 78 0.0 3.2 0.00 0.00 0.00 61 1021.9
20260831155517 31 97 0.0 8.0 0.00 0.00 0.00 62 1021.8
20260831155017 31 79 1.6 6.4 0.00 0.00 0.00 62 1022.0
20260831154517 30 89 0.0 11.3 0.00 0.00 0.00 63 1022.0
20260831154017 30 49 4.8 6.4 0.00 0.00 0.00 64 1021.9
20260831153517 30 75 3.2 11.3 0.00 0.00 0.00 65 1021.9
20260831153018 30 155 6.4 9.7 0.00 0.00 0.00 65 1021.9
20260831152517 30 258 6.4 6.4 0.00 0.00 0.00 66 1021.9
20260831152017 30 90 0.0 3.2 0.00 0.00 0.00 68 1021.9
20260831151517 29 0 0.0 0.0 0.00 0.00 0.00 69 1021.9
20260831151017 29 0 0.0 0.0 0.00 0.00 0.00 70 1021.9
20260831150517 29 99 0.0 8.0 0.00 0.00 0.00 70 1022.0
20260831150017 28 82 3.2 8.0 0.00 0.00 0.00 70 1021.9
20260831145517 28 161 1.6 4.8 0.00 0.00 0.00 71 1022.0
20260831145017 28 0 0.0 0.0 0.00 0.00 0.00 73 1022.0
20260831144517 28 0 0.0 0.0 0.00 0.00 0.00 75 1021.9
20260831144017 27 0 0.0 0.0 0.00 0.00 0.00 75 1021.9
20260831143517 28 271 0.0 3.2 0.00 0.00 0.00 75 1021.9
20260831143017 27 302 3.2 3.2 0.00 0.00 0.00 75 1021.9
20260831142517 27 311 3.2 4.8 0.00 0.00 0.00 77 1021.9
20260831142018 27 268 0.0 6.4 0.00 0.00 0.00 77 1021.9
20260831141517 27 263 4.8 3.2 0.00 0.00 0.00 78 1021.9